Flag for Canada Weather past 2 weeks in Creighton, Saskatchewan, Canada

Now
-22 °F

Snow flurries. Passing clouds.


Feels Like: -40 °F
Forecast: -24 / -9 °F
Wind: 7 mph from Northwest

Location: The Pas

Current Time: Dec 27, 2014 at 6:17:38 AM

Latest Report: Dec 27, 2014 at 5:56 AM


Visibility: 15 mi

Pressure: 30.20 "Hg

Humidity: 75%

Dew point: -27 °F

Location of CreightonLocation

Historic Weather in Creighton — Graph

°F

Creighton temperature yesterday

Maximum temperature yesterday: -4 °F (at 12:00 AM)
Minimum temperature yesterday: -18 °F (at 9:00 AM)
Average temperature yesterday: -9 °F

Past Weeks' High & Low Weather Summary

 TemperatureHumidityPressure
High32 °F (Dec 12, 1:00 PM)100% (Dec 12, 5:00 AM)30.49 "Hg (Dec 12, 5:00 AM)
Low-20 °F (Dec 27, 1:00 AM)75% (Dec 27, 12:00 AM)29.51 "Hg (Dec 24, 3:00 PM)
Average16 °F90%30.02 "Hg
* Reported Dec 12 5:00 AM — Dec 27 5:00 AM, Creighton, Weather by CustomWeather, © 2014

Note: Actual official high and low records may vary slightly from our data, if they occured in-between our weather recording intervals... More about our weather records

Advertising

Creighton weather history for previous 24 hours

 ConditionsComfort  
Time TempWeatherWind HumidityBarometerVisibility
5:00 AM
Dec 27
-20 °FClear.9 mph75%30.19 "Hg15 mi
4:00 AM-18 °FClear.8 mph83%30.18 "Hg15 mi
3:00 AM-18 °FPassing clouds.5 mph83%30.17 "Hg15 mi
2:00 AM-17 °FPassing clouds.2 mph83%30.17 "Hg15 mi
1:00 AM-20 °FPassing clouds.3 mph83%30.18 "Hg15 mi
12:00 AM-18 °FClear.2 mph75%30.19 "Hg15 mi
11:00 PM
Dec 26
-15 °FClear.3 mph76%30.19 "Hg15 mi
10:00 PM-11 °FPassing clouds.5 mph84%30.20 "Hg15 mi
9:00 PM-8 °FPassing clouds.2 mph84%30.21 "Hg15 mi
8:00 PM-6 °FPassing clouds.2 mph84%30.22 "Hg15 mi
7:00 PM-6 °FLight snow. Overcast.3 mph84%30.22 "Hg15 mi
6:00 PM-6 °FLight snow. Overcast.5 mph84%30.23 "Hg15 mi
5:00 PM-4 °FLight snow. Mostly cloudy.3 mph77%30.24 "Hg6 mi
4:00 PM-4 °FLight snow. More clouds than sun.7 mph77%30.25 "Hg15 mi
3:00 PM-4 °FLight snow. Overcast.9 mph77%30.25 "Hg12 mi
2:00 PM-4 °FLight snow. Overcast.12 mph77%30.26 "Hg15 mi
1:00 PM-6 °FOvercast.7 mph77%30.27 "Hg15 mi
12:00 PM-9 °FOvercast.9 mph84%30.29 "Hg15 mi
11:00 AM-11 °FPartly sunny.8 mph76%30.30 "Hg15 mi
10:00 AM-15 °FPassing clouds.8 mph83%30.29 "Hg15 mi
9:00 AM-18 °FPassing clouds.5 mph83%30.29 "Hg15 mi
8:00 AM-15 °FClear.3 mph83%30.28 "Hg15 mi
7:00 AM-13 °FClear.7 mph76%30.27 "Hg15 mi
6:00 AM-13 °FClear.9 mph76%30.27 "Hg15 mi
Weather by CustomWeather, © 2014

See weather overviewHow to use our weather pages